Theta_e
330 322 318 316 314 310 308 300 296 295 286 286 285 288 290 292 292 294 294 294 295 296 296 297 296 299 299 295 297 296 294 294 293 288 294 296 306 315 322 325 329 333 334 337 340 342 345 346 351 352 354 353 354 353 352 352 351 350 348 347 347 346 346 346 346 346 347 347 347 347 347 347 347 347 347 347 348 348 347 347 347 346 346 345 345 345 344 343 342 342 340 338 336 336 337 336 336
324 320 317 315 314 308 302 295 290 283 283 283 288 286 287 289 293 291 293 293 295 299 295 297 296 298 296 295 295 297 297 297 297 299 299 307 315 316 322 323 330 332 334 337 340 342 344 345 348 352 354 353 353 353 353 352 351 350 348 347 347 347 346 346 347 346 347 347 347 347 347 347 347 347 346 347 347 347 347 346 346 346 345 345 344 344 342 342 341 340 339 337 335 334 334 335 335
321 318 315 310 310 305 300 296 293 281 280 282 281 285 288 292 291 291 292 293 294 294 293 297 297 299 299 298 298 297 295 299 297 305 310 312 311 312 322 324 331 333 334 338 341 342 344 344 346 351 354 353 353 352 352 352 350 349 348 347 347 347 346 346 346 346 347 347 347 348 348 347 347 347 347 347 347 347 346 346 346 344 343 343 342 341 340 339 340 338 336 336 334 333 333 333 333
317 317 316 305 305 299 294 290 287 282 283 279 283 286 289 291 289 290 291 294 293 293 297 300 299 300 300 295 298 299 296 299 300 310 307 312 308 309 325 327 329 334 335 338 341 342 343 344 345 351 353 353 353 352 352 351 350 349 348 347 347 346 346 346 346 347 347 347 348 348 348 348 348 348 347 348 347 346 344 344 343 342 341 340 340 339 339 338 338 337 336 335 333 331 331 331 330
315 317 310 303 298 298 292 290 287 284 285 284 287 289 288 289 290 290 292 291 292 294 296 298 297 298 301 301 299 299 299 299 302 308 310 310 312 315 325 330 332 334 335 338 341 342 342 343 344 349 353 353 353 352 352 351 350 349 348 347 347 346 346 346 347 347 348 347 347 348 348 348 348 347 347 346 344 344 343 342 341 340 339 338 338 337 337 337 336 336 335 334 332 330 329 329 329
310 311 311 304 301 299 292 289 288 287 287 286 288 288 288 288 290 290 291 292 296 294 296 296 298 299 299 299 299 301 298 303 303 312 312 311 316 318 327 331 333 333 334 338 340 342 342 342 343 348 353 353 352 352 351 351 350 349 348 347 347 346 347 346 347 347 347 348 348 348 348 347 347 347 345 344 342 341 341 340 339 338 337 336 336 336 336 336 336 335 333 331 331 329 328 327 327
311 304 302 300 300 296 291 284 285 285 291 289 291 288 289 289 291 294 293 297 298 299 295 299 297 297 296 296 300 301 300 307 310 312 311 315 317 325 329 332 332 332 334 337 339 341 341 342 345 349 351 352 352 352 352 351 350 349 348 347 346 347 347 346 346 347 347 348 348 348 348 348 347 346 344 343 342 341 340 339 338 337 335 334 334 335 335 335 335 334 333 331 329 327 325 327 325
310 304 300 294 292 290 287 285 286 284 293 290 291 292 290 290 290 294 293 294 296 298 297 296 296 297 297 297 297 299 300 310 309 314 315 315 320 324 330 332 331 331 334 336 338 339 339 341 345 348 350 351 351 351 352 351 350 348 348 347 347 347 347 346 346 346 348 348 348 348 348 347 347 346 344 343 341 340 340 339 338 336 335 334 334 333 333 334 333 333 332 330 327 325 325 325 325
306 303 298 294 290 287 284 289 289 288 290 290 289 291 301 294 292 294 294 294 295 295 295 297 297 296 293 295 296 298 299 306 313 315 317 318 322 324 331 331 331 330 332 335 337 338 339 339 343 347 348 350 351 352 352 351 350 349 348 347 347 347 346 346 346 347 347 347 348 348 347 347 347 345 344 343 341 340 339 338 337 336 335 335 334 332 332 332 332 333 331 329 327 324 324 324 323
305 300 294 291 289 288 283 285 287 293 290 290 289 292 293 293 294 295 296 295 297 296 295 296 297 298 297 297 297 300 307 305 310 318 317 319 321 321 325 329 329 331 331 334 336 337 339 336 340 344 346 349 350 351 351 350 350 349 348 347 347 347 347 347 347 348 347 347 348 348 347 346 347 345 344 343 341 340 339 338 337 337 336 335 334 333 332 332 332 332 330 328 325 325 323 323 324
298 296 295 288 283 282 285 286 284 288 289 291 291 292 292 294 295 294 294 294 294 294 295 297 299 297 296 297 296 300 301 307 315 316 317 319 320 319 321 322 326 329 332 331 334 336 337 338 336 341 343 345 347 349 350 349 349 349 348 348 348 347 347 347 347 347 348 348 349 347 347 347 347 346 343 342 341 340 340 339 338 336 336 336 334 333 332 331 331 331 330 327 325 323 325 323 323
297 293 290 283 284 285 282 285 287 288 291 288 295 294 293 295 294 295 294 295 293 292 294 298 298 296 296 293 295 299 300 306 310 311 313 315 319 318 319 317 320 327 328 331 332 334 335 337 338 338 339 342 343 346 347 347 348 347 348 348 348 347 347 347 347 347 347 347 348 347 347 347 347 345 344 342 342 341 340 339 338 337 336 335 334 333 332 330 330 330 329 327 324 323 324 323 321
295 291 287 285 288 287 285 285 285 290 287 290 294 296 293 295 296 295 293 292 292 292 295 295 298 298 295 295 295 294 300 304 310 308 309 313 317 315 315 316 317 324 325 327 331 333 333 336 339 341 339 337 338 340 341 343 344 345 347 347 347 346 346 346 346 346 346 346 347 347 346 345 345 345 344 343 342 341 340 339 338 336 336 335 334 332 331 330 329 329 328 326 323 323 323 321 321
296 292 290 289 284 284 286 286 285 289 287 292 289 291 293 296 294 295 291 294 291 294 296 297 298 297 295 292 291 289 294 300 301 307 308 313 314 315 316 315 316 318 323 327 331 332 333 335 339 342 342 340 341 337 336 338 341 343 344 344 344 344 344 345 345 344 345 345 344 342 342 341 342 342 342 342 341 340 340 339 339 336 336 335 333 332 331 330 329 329 327 326 324 323 323 321 320
298 293 286 286 284 284 284 290 289 285 290 290 294 293 293 295 295 291 295 293 293 293 298 298 299 297 291 293 290 292 302 301 307 309 310 313 314 314 315 316 316 316 321 327 330 331 332 334 338 341 340 342 342 342 343 339 336 339 341 341 341 342 342 342 341 342 341 340 340 338 338 336 336 336 336 337 338 336 334 332 336 338 335 334 333 331 331 330 329 328 327 326 324 323 322 320 318
297 292 288 288 283 284 284 288 285 286 289 291 293 290 293 294 294 296 295 296 296 299 297 299 299 298 295 295 298 296 295 300 307 309 311 313 312 313 312 316 316 316 318 326 328 329 331 333 337 340 341 342 343 344 344 342 335 333 337 339 339 340 339 339 338 338 334 332 332 332 332 333 331 332 329 333 331 334 331 328 332 336 336 334 333 331 331 330 329 328 327 326 325 323 322 319 315
295 291 290 282 284 283 285 288 287 287 287 288 289 293 294 292 292 294 295 295 297 295 294 295 299 298 296 296 297 300 304 308 310 310 311 311 310 311 310 313 314 314 317 323 327 328 328 331 335 338 340 341 343 343 344 343 340 331 333 333 334 335 336 335 335 332 328 326 326 326 326 333 331 331 331 333 325 330 323 323 329 334 336 335 334 331 331 330 329 328 327 326 324 323 319 316 315
294 289 283 284 281 286 287 289 288 291 292 291 290 292 293 290 291 295 296 295 290 290 292 293 294 295 297 296 304 305 306 308 309 310 309 309 309 309 310 311 311 318 317 319 323 327 330 332 332 335 338 340 342 343 343 343 342 335 339 338 335 334 331 329 332 334 328 330 326 330 330 330 332 332 331 328 329 328 324 321 324 329 333 333 331 332 330 330 329 328 326 326 325 322 315 297 297
290 287 285 284 283 287 292 289 288 291 291 289 291 290 291 293 294 294 294 293 291 294 296 294 294 295 296 297 295 302 307 306 308 308 308 308 309 311 312 311 314 313 316 316 320 325 331 333 333 334 336 339 340 341 342 343 342 339 339 340 338 333 331 329 333 330 329 331 329 332 329 328 329 331 331 328 327 322 324 320 323 327 330 330 329 330 331 330 329 327 326 325 324 317 298 294 292
293 290 287 285 288 289 290 291 294 291 293 293 291 292 291 293 294 295 295 292 292 294 296 294 294 296 296 294 294 296 305 305 306 306 307 308 309 311 310 311 314 316 318 319 320 320 327 331 333 335 335 337 339 340 341 342 342 340 340 341 340 338 336 333 333 333 331 330 332 331 330 328 325 327 325 321 321 324 323 319 321 322 325 325 323 324 328 329 329 328 326 325 314 300 293 294 293
294 292 288 289 289 292 293 292 294 293 291 292 292 291 292 293 292 294 293 294 296 296 295 295 296 297 297 297 296 293 301 303 303 304 304 306 307 309 312 312 314 317 316 315 316 321 324 329 332 334 335 336 337 339 339 340 341 340 340 340 340 339 337 335 335 334 333 332 331 331 329 328 327 325 325 324 323 322 321 320 320 322 321 319 320 315 315 315 318 313 313 306 298 297 295 293 293
295 293 291 291 290 292 295 293 292 292 289 291 290 291 295 293 295 293 293 292 294 297 300 295 295 296 295 297 298 298 298 300 302 303 305 305 305 306 308 309 310 308 309 315 319 319 321 326 330 332 334 335 336 338 338 339 339 339 339 339 338 338 338 336 336 335 334 333 331 330 328 327 325 324 323 323 322 321 320 319 320 319 318 318 317 316 313 311 309 308 306 303 297 296 295 293 292
293 290 292 292 291 294 293 292 292 291 293 292 292 293 292 293 292 292 293 295 298 301 300 300 297 296 297 295 295 295 294 296 298 301 303 304 305 305 305 306 306 307 308 314 315 317 319 321 325 329 332 333 335 337 338 338 338 339 339 339 338 336 336 337 335 335 334 333 331 328 328 326 324 323 322 321 320 319 319 319 319 318 319 318 315 316 313 310 307 305 303 301 296 296 295 293 291
295 291 289 293 293 294 294 296 294 293 291 293 292 291 292 292 293 292 292 297 298 300 301 299 297 296 295 295 294 294 294 293 294 295 297 300 302 303 303 304 304 305 306 310 311 313 316 319 322 325 329 331 333 335 336 337 337 337 338 333 336 335 334 334 336 335 332 332 330 328 327 327 324 322 321 320 320 319 319 319 319 317 318 317 314 315 314 309 306 304 302 299 297 296 296 294 292
294 292 291 292 291 292 291 290 290 290 291 292 291 291 294 292 292 292 295 298 298 298 297 297 294 293 292 292 293 292 293 294 294 294 296 296 296 297 298 298 300 300 304 306 308 311 313 315 318 323 325 327 331 334 334 335 336 336 335 335 336 332 332 334 336 333 331 330 329 328 327 326 324 323 321 320 319 319 319 318 317 317 317 316 314 313 313 311 308 305 302 301 297 296 294 293 292
291 292 290 289 291 291 292 292 292 291 292 292 292 293 293 293 292 292 296 298 297 296 295 293 294 294 293 292 293 295 296 296 296 296 297 297 297 297 297 297 297 298 302 304 304 309 311 315 319 322 324 325 326 330 333 334 334 335 335 334 335 334 335 333 332 334 333 329 326 327 326 326 325 323 321 319 319 319 318 318 317 317 316 315 315 314 311 311 311 304 301 300 299 297 296 294 294
291 289 289 291 293 290 290 289 294 293 292 292 293 293 293 291 293 291 291 294 295 294 292 292 291 292 292 294 296 296 296 296 296 296 297 297 297 297 297 297 297 298 299 300 301 307 310 314 317 320 320 318 320 326 329 332 333 334 334 334 334 334 333 333 332 330 330 331 329 326 325 325 324 323 322 320 319 319 318 317 317 316 315 314 315 316 312 312 310 309 306 304 302 297 298 295 294
291 292 291 290 289 291 291 290 292 291 293 290 291 290 291 289 291 291 298 295 292 292 292 292 291 291 292 295 296 295 296 296 296 296 295 295 295 296 296 296 297 298 299 300 301 302 308 312 315 317 319 319 320 321 322 328 331 332 332 333 333 334 333 332 330 329 327 328 327 326 325 323 321 322 321 319 319 317 316 316 316 315 315 313 312 312 310 310 309 305 302 300 299 298 298 295 292
292 292 291 289 289 291 293 292 292 292 291 290 290 291 290 290 289 294 296 293 293 291 291 291 291 290 292 294 295 295 295 295 295 295 295 295 296 296 295 297 297 297 299 301 303 305 307 310 313 314 315 316 318 319 320 321 323 329 330 331 332 331 332 333 332 329 327 327 327 326 325 324 321 321 320 319 318 318 316 315 314 314 315 313 311 309 307 305 305 302 299 297 297 296 296 295 293
293 289 289 290 287 288 292 292 290 291 291 289 291 285 286 287 290 293 294 292 291 292 291 291 290 290 293 294 294 294 295 295 294 295 295 295 296 296 295 296 297 297 299 302 306 306 308 310 313 313 313 314 315 317 316 317 317 320 325 328 329 329 330 329 329 331 329 327 327 325 325 324 322 322 320 318 318 317 316 315 315 314 313 312 310 308 306 304 304 302 300 297 299 296 295 294 293
291 288 289 286 285 283 288 291 290 291 291 288 294 286 284 288 293 294 293 292 291 292 290 289 290 292 293 293 293 293 294 294 294 294 295 295 295 296 295 296 297 297 298 300 302 303 305 307 310 313 310 312 314 313 314 314 313 314 316 321 324 326 327 329 329 329 327 325 324 324 324 322 320 321 321 321 317 316 314 313 312 313 309 307 309 307 307 304 304 303 299 300 294 293 292 292 292
285 287 283 280 284 284 288 292 290 291 292 288 291 283 287 291 292 294 293 291 291 291 290 289 291 293 292 292 292 292 292 293 294 294 294 295 295 295 295 295 296 296 297 298 300 301 302 304 307 308 308 309 310 310 311 312 313 313 314 315 317 320 321 322 321 322 323 324 325 325 324 322 320 320 318 316 316 315 315 313 312 309 307 307 307 305 306 304 303 302 299 300 297 295 292 293 289
282 286 282 282 282 282 287 291 289 291 290 291 290 287 285 290 290 292 294 292 290 290 289 289 292 292 292 291 291 291 291 292 293 293 294 294 294 295 295 295 295 296 297 297 298 300 300 301 303 306 308 308 309 309 310 311 312 313 313 314 314 314 315 315 314 315 319 319 319 320 319 318 316 316 315 315 317 315 315 314 312 309 308 308 308 306 306 306 303 302 297 297 300 301 293 293 290
282 281 283 282 284 284 284 289 291 288 291 289 289 287 286 290 290 293 294 293 292 291 289 290 292 291 291 290 290 290 290 291 291 292 293 293 294 294 294 295 295 295 296 296 297 298 298 299 300 302 305 308 309 309 310 311 312 312 312 313 312 313 312 312 313 314 314 313 313 314 314 314 314 314 314 313 314 315 314 314 311 310 309 309 308 307 307 304 303 303 302 296 295 297 295 294 293
280 283 282 284 283 283 286 285 288 290 290 289 287 286 287 289 292 294 293 293 291 290 289 291 291 291 290 290 290 290 290 290 291 292 292 293 293 293 294 294 294 295 295 296 296 297 298 298 299 299 300 304 308 309 310 312 313 314 314 314 313 313 313 313 313 313 312 313 312 312 312 312 312 314 313 312 313 312 312 311 310 309 308 308 307 306 304 302 302 301 303 298 292 294 296 293 293
287 287 286 283 284 284 285 288 288 290 289 288 286 288 290 291 291 293 293 293 290 289 291 291 291 290 290 289 289 289 289 290 291 292 292 292 292 293 293 293 294 294 294 295 295 295 296 296 297 298 298 300 304 306 308 309 310 310 311 312 310 309 311 310 310 310 311 311 311 312 312 312 312 311 311 311 311 309 309 308 307 306 306 306 305 304 303 302 302 300 298 298 295 292 291 291 290
287 286 285 285 284 285 287 287 291 291 288 286 289 288 286 288 290 290 292 292 291 290 290 290 290 290 290 289 289 289 289 289 291 291 291 291 292 292 292 292 293 293 293 294 294 294 294 294 295 294 296 297 299 301 302 303 304 304 305 303 302 303 303 303 304 305 306 306 307 309 309 310 310 310 309 310 309 308 308 306 305 304 305 305 305 304 304 303 301 300 297 296 297 294 293 291 291
287 286 284 284 283 285 288 288 290 289 289 284 284 286 288 289 289 290 291 290 289 289 289 289 289 289 289 289 288 289 289 290 290 290 290 290 291 291 292 292 292 291 291 292 292 293 293 293 293 293 294 295 295 296 299 299 299 299 301 299 299 299 299 298 298 299 300 302 303 303 304 306 307 307 306 307 307 307 306 305 304 304 304 304 303 301 300 299 299 297 296 295 294 295 294 290 290
286 285 284 282 285 284 288 288 287 288 288 287 285 287 288 290 288 290 289 288 289 289 289 289 288 288 288 288 288 288 288 288 289 289 289 289 289 290 291 291 291 291 291 291 292 292 292 292 293 293 293 293 294 295 296 296 297 298 298 296 297 295 295 296 296 296 297 298 299 299 300 301 302 303 304 305 306 305 304 303 302 301 301 301 301 301 300 299 298 298 296 297 296 291 292 291 290
284 284 283 284 285 285 283 285 286 289 287 286 285 285 287 287 288 289 289 289 288 289 289 288 288 287 287 287 287 287 286 287 286 287 287 288 288 289 289 290 290 291 290 291 291 291 292 292 292 292 292 293 293 294 295 294 295 295 296 296 296 296 294 295 296 296 295 295 295 296 296 297 299 299 299 299 300 300 300 300 296 296 296 297 298 299 299 298 297 297 296 296 296 296 292 291 291
283 285 284 284 285 286 286 286 286 285 288 284 286 286 284 286 287 286 288 289 288 288 288 288 288 288 288 287 287 287 286 286 285 286 286 287 287 287 287 289 289 289 290 290 290 290 291 291 291 291 292 292 292 293 293 294 295 295 295 295 295 294 295 294 294 293 293 293 293 293 293 294 295 296 296 297 297 297 296 296 296 295 294 294 295 296 296 296 296 295 295 295 295 296 296 294 291
283 284 288 288 288 287 284 285 286 281 282 283 285 279 276 279 282 285 286 286 286 286 286 286 286 287 287 286 286 286 286 286 285 285 285 286 286 286 287 287 288 288 289 289 290 290 290 291 291 291 291 291 291 292 293 293 293 292 292 292 291 291 290 290 290 289 290 290 291 291 292 292 293 293 293 293 294 294 295 295 294 295 293 291 292 294 293 293 293 293 293 294 294 294 295 295 293
284 287 287 289 288 286 285 285 285 280 279 284 284 282 275 279 282 285 284 284 284 285 285 285 285 285 285 285 285 285 285 285 285 285 285 285 285 286 286 286 287 287 288 289 289 290 290 290 290 290 290 290 291 291 292 292 291 291 291 290 289 289 288 288 289 289 289 290 291 291 291 291 291 291 291 291 291 292 292 293 293 293 293 292 290 291 291 291 292 292 293 293 293 294 293 292 292
283 284 284 286 285 285 284 283 285 281 281 282 283 285 279 276 283 285 285 284 283 283 284 284 284 284 284 284 284 284 284 284 284 284 285 285 285 285 285 286 286 286 287 288 288 289 289 289 289 290 290 290 290 290 290 291 290 290 289 289 289 288 288 288 289 289 289 290 290 289 290 290 290 290 290 290 290 290 290 291 291 292 292 292 291 291 291 291 290 290 291 291 291 291 291 291 292
284 286 284 283 285 283 283 284 282 282 282 279 278 282 280 276 280 282 284 283 282 282 283 283 284 284 284 284 284 284 284 284 283 283 284 284 284 284 285 285 285 286 287 287 287 287 288 288 288 288 288 289 289 290 290 290 290 289 289 288 288 288 288 288 288 289 288 289 288 288 288 288 289 289 289 289 289 289 289 289 290 290 291 291 291 291 290 289 289 289 289 289 289 289 289 290 290
287 284 284 284 283 281 280 279 282 279 279 275 280 282 278 278 279 280 283 283 282 282 283 283 284 284 284 284 284 284 284 284 284 284 284 284 284 284 284 284 285 285 286 286 286 287 287 287 287 287 287 287 287 288 288 288 288 288 287 287 287 287 287 287 287 287 287 287 286 287 287 287 287 287 288 288 288 288 288 288 288 288 289 289 290 290 290 290 290 289 288 287 287 287 288 288 288
286 285 286 282 281 280 278 278 276 278 272 277 282 283 283 276 280 281 281 283 282 283 283 283 284 284 284 284 284 284 284 283 283 283 283 283 283 283 284 284 284 285 285 286 286 286 286 287 286 286 286 287 287 286 286 286 286 286 286 285 285 285 285 285 285 285 285 285 284 285 285 285 286 286 286 286 286 287 287 287 287 287 288 288 288 289 289 289 289 289 288 286 286 286 287 287 287
286 286 282 282 284 277 277 270 275 272 272 274 277 281 281 275 276 281 281 283 283 285 283 283 282 282 283 283 284 284 283 283 283 282 283 283 283 283 283 283 283 284 284 285 285 285 286 286 286 286 286 286 286 286 286 286 286 286 285 285 284 284 284 284 283 283 283 283 283 283 284 284 284 284 285 284 285 285 286 285 286 286 286 286 287 287 288 288 288 288 288 287 287 286 285 285 285
285 282 282 278 273 274 272 270 273 272 273 278 278 280 280 280 281 282 281 282 283 285 285 284 283 283 283 283 283 283 283 282 282 281 281 282 282 282 282 282 282 283 283 283 284 284 284 285 285 285 285 285 285 285 286 285 286 285 285 285 284 285 284 284 283 283 283 283 283 283 283 283 283 283 284 284 284 284 285 284 285 285 285 285 285 286 286 286 286 287 287 287 287 286 286 285 285
284 284 279 275 272 271 268 268 265 268 273 276 279 281 278 278 281 280 280 283 283 284 285 284 284 283 283 283 283 283 282 282 282 281 281 281 281 282 282 282 282 282 282 282 283 283 283 284 284 284 284 284 284 285 285 285 285 285 285 285 285 284 284 284 284 284 284 284 284 283 284 284 283 283 284 284 284 284 285 285 285 285 285 285 285 285 285 285 285 285 285 285 286 286 286 284 284
284 282 285 282 274 266 269 265 273 275 275 275 276 276 271 276 280 279 281 282 282 283 283 283 282 282 282 281 281 282 282 282 281 281 282 282 282 282 283 283 282 282 282 282 282 283 283 283 284 283 283 283 283 284 284 284 284 285 285 286 286 285 284 284 284 285 284 284 284 283 284 284 283 284 284 284 284 284 284 284 284 284 284 285 285 285 285 285 285 285 285 284 285 285 285 284 285
282 281 283 279 280 278 277 272 268 268 271 273 274 275 275 279 280 281 281 281 282 282 283 282 282 282 282 282 282 282 282 282 282 282 282 282 282 283 283 283 283 283 282 283 283 284 284 284 284 284 283 282 283 283 284 284 284 284 285 284 285 285 284 283 283 283 283 284 283 283 282 283 283 283 283 283 283 282 282 282 282 282 282 282 283 283 283 284 284 284 284 284 284 286 285 285 285
282 284 280 281 283 284 277 274 274 272 269 274 271 277 280 281 281 280 280 281 281 281 281 281 281 281 281 281 282 281 281 281 281 281 280 281 282 283 283 283 284 284 283 284 284 284 283 283 282 282 282 282 283 283 283 283 283 284 283 283 283 282 282 281 281 280 281 280 281 281 281 281 281 282 283 283 282 281 281 281 281 281 282 282 281 281 281 281 282 281 281 282 282 284 284 284 285
284 279 282 283 283 282 279 274 269 267 271 273 272 276 277 279 275 279 280 279 280 280 280 281 281 280 281 282 282 282 282 281 281 281 281 281 282 282 282 283 283 284 284 284 284 284 284 284 284 284 284 284 285 285 285 285 284 284 284 283 283 282 281 281 282 280 280 280 279 280 279 280 279 280 281 281 280 279 279 280 280 280 280 279 279 279 279 280 280 280 280 280 281 281 282 282 283
283 282 283 285 277 278 278 272 273 269 268 270 273 275 277 279 280 277 278 278 280 280 280 280 281 281 282 282 282 281 281 281 281 281 281 282 282 282 283 284 285 285 284 283 284 284 283 283 282 282 282 283 284 285 285 285 285 285 284 284 283 283 283 282 281 281 280 280 280 280 279 279 280 280 280 280 279 280 280 280 279 279 278 278 278 278 278 278 278 279 279 280 280 280 280 280 281
285 285 284 283 281 274 274 277 272 273 269 272 271 277 277 280 280 280 281 281 281 281 280 281 282 283 283 283 283 283 283 282 282 283 283 284 284 284 284 284 284 284 285 285 285 285 285 285 284 284 284 284 284 284 284 284 284 284 283 281 280 280 280 281 280 280 281 281 280 280 279 279 279 279 278 278 278 279 279 279 279 279 280 280 279 279 278 278 278 278 278 279 279 278 278 279 280
284 283 279 282 277 280 279 278 275 276 272 275 276 276 275 278 281 282 283 283 282 283 282 282 283 283 283 283 284 284 283 283 284 284 284 284 283 282 283 283 283 283 283 283 283 283 283 283 283 283 283 283 283 282 283 283 283 282 282 282 281 281 281 281 280 280 280 279 279 280 280 279 279 278 278 278 278 277 278 278 278 279 279 279 279 279 279 279 279 279 279 278 279 278 278 279 279
283 285 282 284 279 279 278 278 278 275 280 275 277 276 281 282 285 283 283 284 283 283 283 283 284 284 284 284 284 284 284 284 285 285 284 284 283 283 283 282 282 283 283 283 283 283 283 284 282 281 282 281 281 281 281 282 281 281 281 280 280 279 279 280 279 279 280 280 279 279 279 279 278 279 279 279 279 278 278 278 278 278 278 278 278 278 278 278 278 278 279 280 279 278 278 278 278
Wind_Speed
7 6 6 2 2 1 1 6 1 2 4 1 1 1 0 0 1 1 2 2 1 2 3 0 2 2 1 1 1 2 3 2 5 3 1 2 1 3 6 2 1 6 10 8 9 9 9 11 14 14 14 14 14 15 15 14 14 13 12 12 11 11 11 12 11 9 9 8 8 7 7 8 8 8 8 8 8 10 10 10 10 9 9 8 8 8 8 8 8 8 9 9 8 8 8 8 7
5 5 4 1 0 1 1 2 4 3 6 3 1 1 2 2 1 2 1 4 2 0 3 0 1 1 4 4 1 0 2 7 6 1 3 3 5 2 6 4 4 10 8 8 8 9 8 9 14 13 14 14 15 15 14 15 15 14 13 12 12 11 11 11 11 11 10 9 9 8 8 8 8 8 8 9 9 10 10 10 8 8 8 7 7 7 6 7 7 8 8 8 8 8 8 8 8
4 5 3 4 2 4 2 4 0 1 4 1 3 5 2 0 2 3 7 5 3 3 4 0 0 0 1 2 1 2 2 0 1 2 2 3 0 3 7 5 5 8 10 8 9 9 8 9 14 14 16 13 15 16 15 15 15 14 14 14 13 13 12 12 11 10 10 9 9 9 8 8 8 9 9 9 10 10 10 8 7 6 6 7 6 5 5 5 6 7 7 8 8 8 8 8 8
2 2 0 3 2 4 1 4 4 5 3 4 2 3 1 1 3 5 5 8 5 3 1 1 0 1 1 2 1 1 3 2 4 3 1 1 6 1 9 7 5 6 6 8 9 9 8 9 13 14 15 14 14 15 15 16 15 14 13 14 14 14 13 13 12 10 9 9 9 8 8 9 9 9 10 10 10 10 8 7 7 6 6 5 5 5 5 5 6 7 7 7 7 8 8 8 8
1 1 2 3 3 2 2 1 4 2 1 4 1 3 4 4 4 4 3 3 5 1 1 0 0 1 1 1 0 0 1 3 3 3 1 3 1 3 8 6 6 7 8 8 9 9 9 13 13 14 15 16 16 15 14 14 14 14 13 13 14 14 14 14 13 12 11 10 10 10 9 9 10 11 11 11 9 9 8 6 6 6 6 6 4 4 3 5 5 5 6 6 7 7 7 7 7
2 1 3 2 1 2 5 2 2 0 4 5 0 1 2 4 3 3 5 6 1 2 3 0 0 0 1 1 3 0 3 2 0 1 2 2 3 5 7 6 7 7 6 7 8 9 9 14 14 15 16 17 17 15 14 13 15 15 14 14 15 15 15 14 13 13 12 11 11 11 10 10 12 12 11 10 9 7 6 6 6 6 6 4 3 2 3 4 4 5 5 5 6 7 7 7 7
2 4 4 4 2 4 3 3 1 2 2 6 1 2 2 2 6 1 4 2 1 0 2 1 1 1 0 2 2 3 2 0 1 0 3 3 3 6 7 7 7 8 7 7 7 8 9 14 16 16 16 16 17 16 15 15 16 15 15 15 16 15 14 14 14 13 13 12 12 12 12 12 12 12 12 12 10 8 8 7 6 6 5 3 3 3 3 2 3 4 4 5 5 6 6 6 6
1 0 2 2 1 4 3 1 2 4 1 5 1 2 4 4 1 1 2 1 1 1 1 1 1 1 3 4 0 2 2 2 3 5 6 3 3 5 6 7 8 7 7 7 7 6 9 14 16 16 17 16 16 16 16 16 17 16 15 15 16 15 15 14 14 13 13 13 12 12 13 14 14 12 12 12 10 9 9 7 7 5 4 3 1 2 2 2 2 3 3 4 4 4 4 5 5
5 5 0 4 2 3 3 1 2 3 6 2 5 7 6 3 1 1 1 1 1 0 3 1 0 3 2 5 2 3 5 1 3 4 1 1 5 5 5 7 8 7 7 7 7 6 7 12 15 16 16 16 16 17 18 19 18 17 16 16 16 15 15 14 13 12 12 13 12 13 13 14 13 10 12 12 12 10 9 8 6 5 4 3 2 1 0 0 1 1 2 3 4 4 3 4 4
2 3 2 2 2 1 3 2 2 1 3 1 3 4 2 0 0 1 0 1 1 0 2 1 1 1 1 5 5 2 1 4 5 1 1 0 2 3 4 5 5 8 6 6 6 6 7 11 14 15 15 16 16 16 19 18 18 18 17 17 16 16 14 14 13 11 11 12 10 13 12 13 11 12 13 13 13 11 10 8 7 5 5 4 4 2 1 1 1 1 1 2 3 3 3 3 4
2 5 3 2 5 1 1 2 4 7 4 5 7 8 7 0 1 0 0 2 0 1 4 2 1 1 1 3 4 2 4 3 1 2 1 0 1 2 3 2 2 5 8 6 6 5 6 7 13 14 14 15 15 16 17 17 17 18 17 17 16 15 14 13 12 11 10 11 9 13 12 12 11 11 13 12 12 12 10 9 7 3 4 5 4 3 3 3 1 1 1 1 2 2 3 3 3
1 3 4 2 1 1 2 1 5 8 8 2 1 2 1 1 1 1 1 2 1 3 1 4 1 3 0 2 3 1 6 4 4 2 1 0 1 1 1 1 1 3 4 6 5 5 5 6 8 12 14 14 14 15 16 16 17 17 17 17 16 15 14 14 13 11 11 10 8 11 13 12 11 11 11 12 10 11 10 9 7 6 5 5 4 4 4 4 3 2 2 1 1 1 1 2 2
4 1 5 4 0 1 1 1 3 4 4 1 1 1 1 0 1 1 3 1 0 3 4 7 1 1 2 1 4 6 3 5 6 3 2 1 2 1 0 1 1 3 3 4 6 6 6 6 8 9 11 14 14 14 15 15 16 16 16 16 16 15 14 14 13 12 11 10 9 10 11 11 10 10 11 11 8 8 9 8 7 7 5 5 5 5 4 4 4 4 2 1 1 1 1 1 2
3 3 3 0 1 0 1 2 0 1 2 2 2 3 1 0 1 1 2 1 3 1 2 2 1 3 2 3 6 3 3 3 3 2 1 1 1 0 1 1 1 3 3 5 6 6 6 7 8 8 9 9 8 10 12 14 14 15 15 15 15 14 14 14 13 12 11 10 9 10 11 11 9 9 10 10 8 7 7 6 6 7 6 6 5 5 4 4 4 4 3 1 1 1 1 1 1
1 2 5 3 0 1 2 0 0 1 1 1 2 3 6 3 0 1 2 1 5 3 2 1 1 2 3 1 7 2 1 3 1 0 1 1 1 1 0 1 1 3 4 5 6 6 7 6 8 8 8 7 8 7 7 10 14 13 14 14 14 14 13 13 13 12 11 10 9 10 10 10 9 8 9 10 8 7 7 7 7 6 7 7 6 6 5 5 5 4 3 2 2 2 1 1 1
4 5 3 0 1 0 2 1 1 2 2 0 3 2 1 6 0 1 3 3 2 1 0 2 0 3 2 3 7 4 5 2 1 2 2 2 2 1 2 0 0 1 3 5 6 5 6 7 6 7 8 8 8 7 8 8 10 12 13 13 13 13 13 12 12 11 11 10 9 10 10 9 7 8 10 8 9 8 8 7 7 5 6 7 7 6 6 6 6 5 4 3 3 2 1 1 2
2 4 1 3 2 2 2 1 3 2 3 3 6 5 2 4 2 2 2 1 3 4 1 2 3 1 4 5 2 3 2 1 3 3 2 1 1 2 3 2 2 1 2 4 5 6 5 6 8 7 8 9 9 8 7 8 9 11 10 12 13 12 11 11 11 11 9 8 8 9 10 7 5 5 8 6 9 6 7 8 6 5 5 5 6 6 6 6 6 5 5 4 3 3 4 4 4
2 1 4 1 3 2 5 4 6 1 1 4 4 0 1 5 4 3 3 1 1 4 4 5 4 5 5 3 1 0 0 1 1 4 1 3 0 2 4 4 2 6 5 5 5 5 6 7 8 8 7 9 9 7 6 6 6 9 8 8 7 8 8 9 7 5 6 4 7 6 4 4 4 4 4 5 5 6 6 8 7 6 5 5 6 6 6 6 6 6 5 5 5 3 5 2 2
3 2 2 5 5 5 6 3 5 0 6 4 4 2 2 6 0 2 4 6 4 9 6 2 5 7 7 8 3 4 0 1 2 3 5 6 5 7 8 5 5 4 6 6 6 6 7 7 7 9 9 9 9 8 6 6 7 6 7 8 7 7 6 6 5 4 3 4 3 3 3 3 3 4 4 4 4 6 7 8 7 6 6 6 6 6 5 6 7 6 6 5 4 6 2 1 1
1 4 2 5 7 4 5 3 4 6 3 5 5 2 0 5 0 1 1 7 6 8 11 4 2 8 8 4 6 4 0 1 1 4 6 7 6 8 6 7 7 8 9 7 6 4 6 8 9 9 10 10 9 8 6 6 6 6 6 6 6 7 6 6 5 5 4 4 5 3 4 4 2 3 5 7 6 4 5 7 9 8 6 6 6 4 4 4 6 7 5 4 5 3 1 0 1
1 1 4 4 3 1 4 5 8 6 3 2 1 2 5 5 3 0 1 8 11 9 6 7 7 8 9 10 3 4 3 3 4 4 5 7 7 6 8 9 9 7 4 1 4 7 8 8 7 8 8 8 9 8 8 6 6 6 6 6 6 6 6 6 6 6 5 6 5 5 4 4 3 2 3 4 3 2 2 3 2 2 2 2 3 2 1 1 2 2 1 4 2 2 1 1 0
4 6 4 3 1 1 8 5 5 2 4 1 2 5 5 3 1 0 0 4 11 9 10 4 5 6 6 9 10 2 4 5 4 4 7 8 8 9 7 8 6 5 2 5 9 7 8 8 8 7 8 9 9 8 8 6 6 6 6 6 5 5 7 6 6 6 6 6 5 5 5 5 4 3 3 4 4 3 3 2 3 2 2 3 1 2 1 1 1 2 3 3 2 1 1 1 0
3 3 3 4 4 3 2 2 2 1 3 4 6 3 2 1 5 4 5 10 10 13 10 11 1 3 6 5 5 7 5 5 5 6 6 7 9 9 8 6 5 6 5 9 4 5 5 5 6 6 8 8 9 8 6 6 5 5 6 6 6 3 3 8 6 5 6 5 6 6 6 5 5 4 4 4 4 4 4 4 4 4 4 4 2 2 2 0 2 3 3 3 2 1 0 1 2
1 5 1 5 2 5 6 6 7 6 2 6 2 2 5 2 11 0 4 11 12 14 13 8 2 2 3 6 5 6 5 5 6 5 4 5 7 9 7 8 5 5 6 10 5 3 4 4 4 6 8 8 8 8 7 6 5 5 5 6 7 6 4 4 7 6 3 7 7 6 6 6 6 5 5 5 5 4 4 4 3 4 4 4 3 2 4 1 2 2 2 2 2 1 1 2 3
3 3 1 4 0 4 5 5 6 5 7 7 4 5 7 3 5 3 13 17 10 10 7 7 4 5 5 5 7 7 5 6 7 6 6 6 5 6 6 7 7 6 8 7 5 5 4 3 4 7 7 8 7 7 7 6 5 4 4 5 6 6 3 4 5 5 4 4 6 7 6 6 5 5 6 5 5 6 5 5 4 4 4 5 5 4 4 4 3 3 3 3 2 2 1 3 3
3 5 1 3 5 5 6 8 8 6 5 2 4 9 7 5 2 4 16 15 6 2 2 5 8 8 7 6 5 7 10 10 8 9 7 6 6 9 11 9 8 7 7 6 4 5 4 4 7 9 8 7 6 6 7 6 6 6 5 5 4 6 7 3 2 6 8 4 3 5 8 6 6 6 5 4 5 5 5 5 5 4 5 4 5 6 6 5 5 3 3 3 3 3 2 3 2
3 2 3 5 8 5 5 4 8 1 4 3 5 11 6 1 2 7 4 7 2 3 5 6 7 6 5 5 6 7 9 11 10 6 10 11 12 12 10 10 10 9 8 6 6 5 5 6 7 6 5 3 4 6 6 7 6 6 5 4 4 4 4 5 4 1 2 8 8 4 4 6 6 5 6 6 5 5 5 6 6 5 5 5 5 6 5 6 5 6 6 5 5 3 4 1 1
1 1 3 4 6 6 8 5 10 2 4 2 7 7 2 2 1 8 11 2 4 4 5 7 6 5 5 6 8 6 8 7 7 9 13 13 11 10 10 10 12 10 9 10 7 6 3 3 4 5 6 6 6 5 4 5 6 6 5 4 5 5 5 3 3 3 3 3 4 6 5 5 4 6 6 6 6 5 5 5 4 5 6 5 4 4 4 4 4 2 2 2 2 2 2 1 1
0 1 5 7 8 8 6 5 3 1 3 2 6 1 4 0 5 12 8 5 6 5 5 5 5 4 4 5 6 8 7 7 8 11 9 6 6 7 9 9 9 9 7 6 7 6 5 2 1 1 3 4 4 4 4 3 3 4 5 5 4 4 6 8 6 3 3 4 6 7 6 6 5 4 4 6 6 6 5 5 4 5 5 5 4 4 3 4 3 3 2 2 1 1 1 3 1
1 2 0 8 5 8 9 0 2 1 3 2 2 4 6 6 12 12 5 6 6 6 8 5 4 4 5 5 6 7 9 9 11 9 8 8 7 8 9 10 9 7 7 7 8 11 7 6 3 3 3 3 1 1 1 1 1 1 3 4 4 4 4 4 5 7 7 6 6 6 6 6 6 5 5 5 5 5 6 6 6 6 6 5 4 4 5 5 5 4 4 3 3 3 4 4 3
3 2 1 3 4 5 3 0 1 5 1 2 0 3 7 10 12 10 2 1 3 6 5 4 3 4 5 5 6 7 8 7 8 9 10 9 8 7 8 9 11 10 7 10 11 8 11 9 7 6 5 4 3 3 3 2 2 2 1 2 2 4 5 6 7 7 6 4 2 3 4 6 6 7 8 9 8 6 5 5 6 7 5 4 5 5 5 5 5 6 5 5 2 3 4 3 3
1 2 5 3 4 7 11 7 4 2 1 1 3 1 8 9 12 12 3 3 5 6 3 2 4 5 6 5 6 7 6 6 8 10 11 10 9 9 10 11 10 11 11 9 9 10 13 11 10 9 8 6 4 4 4 5 4 3 3 3 2 2 3 2 2 2 1 1 5 7 7 6 7 5 4 3 5 6 6 6 7 5 5 5 5 4 5 6 5 4 4 5 5 5 3 6 3
4 2 4 4 1 5 9 2 0 3 1 2 2 5 4 7 8 11 1 6 5 4 3 3 7 6 6 6 6 6 7 9 10 11 12 10 9 9 9 9 10 9 10 11 11 11 13 12 12 12 10 8 7 7 6 5 6 6 5 5 4 4 4 3 2 2 0 1 1 2 2 3 2 4 6 6 5 6 6 6 5 4 4 5 5 5 5 5 5 5 4 5 5 6 5 5 4
4 1 5 3 3 2 3 9 0 2 2 0 1 2 6 8 12 14 7 7 5 4 2 6 6 6 5 5 7 7 8 8 11 11 12 10 9 10 9 8 9 9 9 10 10 10 10 9 10 10 9 8 7 7 7 7 7 7 7 7 7 7 6 5 4 4 4 4 2 2 2 1 1 1 1 2 4 3 3 4 2 4 5 5 5 5 4 3 4 5 6 5 5 4 5 6 6
4 1 1 6 2 4 8 2 3 5 1 2 2 4 8 11 12 14 6 7 5 6 5 6 6 6 6 6 7 7 8 10 9 8 10 10 11 10 9 9 9 9 9 10 11 11 11 10 10 12 11 10 8 7 7 8 8 8 7 8 9 8 7 7 6 6 5 4 4 4 3 2 1 1 0 1 2 1 1 0 1 1 1 2 2 2 2 2 3 4 5 4 3 5 3 4 5
7 6 5 3 4 4 5 7 5 1 6 6 5 8 8 9 10 11 9 7 9 5 6 7 7 6 6 7 7 7 7 8 6 7 8 9 9 10 9 9 8 9 10 10 12 13 12 11 9 11 11 9 7 8 7 7 8 8 8 8 10 9 8 8 8 7 7 7 7 5 4 3 3 3 3 2 2 2 1 1 1 2 2 2 2 4 4 4 4 3 4 2 2 2 2 1 2
2 1 1 5 5 6 7 4 8 1 2 7 8 5 4 8 10 5 8 7 10 6 8 7 6 6 6 6 7 6 8 7 5 6 7 9 10 10 9 9 9 11 13 12 13 13 12 10 11 12 8 9 9 8 8 7 7 6 8 9 7 7 7 8 9 8 8 8 9 8 8 6 5 5 5 4 5 4 4 3 3 3 2 1 1 2 2 2 1 0 0 1 3 3 3 2 0
4 2 2 7 2 10 5 4 1 0 4 3 0 2 7 9 4 6 5 9 9 5 6 7 6 6 6 7 7 7 4 4 7 9 10 10 11 11 10 10 12 15 13 13 13 11 11 12 12 10 9 9 9 7 6 7 5 4 7 6 7 7 8 9 8 9 8 8 10 10 9 8 7 6 5 4 5 4 4 4 4 2 2 1 1 1 2 1 0 0 0 1 0 2 3 2 2
2 4 3 3 9 4 8 8 3 2 3 8 2 2 7 8 3 5 7 8 4 6 5 4 5 6 6 6 6 5 7 8 8 8 9 9 10 11 9 10 10 9 10 11 11 12 13 12 11 10 10 9 9 8 7 7 5 5 6 5 5 6 5 4 6 6 7 8 10 10 10 9 8 8 7 6 5 5 4 4 3 1 1 1 0 0 0 0 0 2 2 3 2 0 2 0 4
3 1 2 9 3 2 6 4 2 2 1 2 1 4 8 3 6 8 6 4 5 6 8 9 6 7 7 7 5 6 8 7 9 8 9 9 8 9 9 10 9 10 11 12 12 12 10 11 11 11 10 10 9 9 7 4 5 5 7 7 8 9 5 4 7 10 11 12 11 10 11 9 9 9 9 8 7 7 6 5 3 3 2 1 0 0 0 2 0 0 1 2 1 4 2 3 4
2 5 5 4 4 6 9 6 3 2 0 1 2 4 6 5 3 2 4 4 7 6 7 7 7 6 4 4 6 7 7 6 7 8 9 9 11 11 10 9 9 11 11 12 11 10 8 11 10 10 10 10 9 10 10 7 7 8 5 7 7 7 9 11 11 11 9 8 10 12 9 9 9 9 9 9 8 8 6 7 6 4 3 2 1 0 1 2 2 2 3 3 3 4 5 3 1
3 7 12 9 9 9 5 4 4 6 3 2 3 4 3 2 2 3 3 3 4 3 7 6 5 5 5 7 6 5 5 4 5 6 7 7 7 8 10 11 11 11 12 10 8 9 9 10 11 11 10 10 11 10 10 10 11 11 11 11 11 9 10 11 11 9 10 10 8 4 10 11 11 10 10 10 10 8 8 7 6 6 5 5 2 1 1 1 1 1 2 3 3 4 5 4 3
0 6 9 12 8 4 2 1 2 2 2 1 2 0 6 7 2 5 3 4 5 3 5 4 4 4 4 5 4 4 4 5 6 6 6 8 8 9 10 11 9 11 9 6 7 9 10 10 10 11 10 9 10 10 10 9 11 11 12 10 9 9 8 7 4 5 6 6 6 10 9 10 11 11 11 10 10 10 9 9 8 7 6 6 3 3 3 3 3 2 1 1 3 2 1 4 6
4 2 3 3 4 5 4 4 6 3 1 4 1 1 5 4 6 1 5 6 4 4 4 3 3 3 4 4 3 3 4 3 4 5 6 6 7 8 9 8 8 8 6 7 9 9 11 11 11 11 10 10 9 8 12 11 11 10 11 11 10 9 8 6 7 6 6 6 10 10 9 9 10 10 11 11 11 11 10 10 9 8 8 7 6 6 5 4 4 3 1 1 1 2 3 4 5
3 0 5 3 5 4 4 3 2 0 1 6 4 0 2 4 6 2 3 4 1 3 2 2 2 2 3 3 3 2 3 3 3 4 5 5 6 7 7 8 6 8 8 8 8 8 8 9 11 12 13 11 10 10 11 11 11 10 10 9 10 7 7 6 5 7 8 8 11 10 10 9 10 10 10 10 10 11 10 9 9 10 9 9 7 7 6 5 5 5 6 4 2 3 2 3 2
2 4 6 6 6 6 3 3 2 1 1 6 5 3 3 7 4 1 0 1 3 4 3 2 1 2 1 1 1 1 2 3 3 3 4 5 5 6 5 5 8 7 6 6 7 7 8 9 11 13 12 10 8 9 10 12 12 11 12 11 11 9 7 6 8 10 9 8 11 10 8 9 9 10 10 11 12 12 11 11 10 10 9 8 7 7 6 7 6 5 5 5 4 4 3 2 3
4 3 4 4 7 3 3 6 2 2 4 6 11 9 7 6 4 5 5 3 2 6 1 2 1 0 1 1 0 0 2 3 3 4 4 4 4 5 5 7 5 6 6 7 8 8 7 9 10 13 9 8 8 8 10 12 11 11 11 11 11 10 8 9 10 10 9 10 9 8 8 6 7 7 7 8 9 9 9 9 9 9 8 8 9 9 8 6 6 5 5 4 4 4 5 4 3
4 1 2 3 2 6 3 3 4 1 7 5 2 5 4 7 4 2 3 2 4 12 11 10 8 6 3 2 1 0 1 2 3 4 4 5 5 6 6 7 6 5 6 8 6 6 7 7 8 11 10 9 8 8 11 11 11 11 10 10 11 9 9 9 10 10 8 9 8 8 6 7 8 7 8 8 9 10 8 8 7 8 9 9 9 7 7 7 6 5 6 5 4 4 3 3 3
3 4 4 2 4 5 3 2 3 5 6 1 2 3 1 9 5 1 4 3 3 5 10 14 11 8 5 4 3 0 1 2 3 3 3 3 4 4 5 4 4 5 5 4 5 4 5 7 8 11 9 7 7 7 10 10 12 11 10 11 10 9 10 10 9 9 8 8 8 9 10 9 9 11 10 11 11 11 8 9 9 9 8 8 7 8 8 8 8 7 7 7 6 6 5 4 4
5 6 5 4 0 1 4 5 1 5 6 3 1 1 4 3 4 1 4 5 5 3 5 6 10 10 8 6 3 1 1 1 1 2 2 2 3 3 3 3 4 3 3 3 3 4 4 6 6 10 7 5 4 5 6 9 10 8 7 7 7 6 7 7 6 6 5 5 5 5 5 5 6 6 6 7 6 7 7 6 6 7 6 5 6 6 7 7 7 7 6 7 7 6 6 5 4
7 2 8 7 8 5 4 3 5 6 6 1 5 1 5 2 2 3 4 3 3 3 6 5 4 5 4 3 2 1 1 0 0 2 2 2 2 2 2 2 2 2 2 3 3 4 4 6 7 8 7 4 4 4 5 8 8 7 6 6 6 5 5 5 4 4 3 4 2 3 3 2 3 2 2 2 4 5 6 7 7 8 9 9 9 9 7 7 6 6 6 6 6 5 6 6 5
2 2 5 5 7 6 6 4 3 2 3 3 2 5 2 2 1 2 1 3 4 4 5 5 5 4 4 3 4 3 2 1 0 0 0 0 0 0 0 1 1 1 2 3 4 3 5 5 5 5 5 4 4 5 6 7 6 6 6 7 6 5 4 4 4 3 3 3 3 4 4 3 3 3 4 5 6 5 7 8 8 8 8 9 9 9 10 9 9 8 7 6 7 5 7 8 6
3 4 4 5 2 4 1 2 1 2 3 9 2 4 2 1 0 4 2 4 2 3 4 5 5 4 3 4 4 4 3 3 3 3 3 2 1 0 0 0 1 1 2 3 4 4 4 4 5 5 4 4 5 5 6 6 5 7 6 6 5 6 6 6 5 4 4 3 4 4 5 4 3 5 4 4 5 5 5 5 6 7 7 7 7 7 7 7 8 8 8 8 8 6 5 6 6
7 1 7 1 2 4 4 4 2 1 6 7 3 7 2 1 7 1 1 2 3 4 5 5 4 4 5 6 5 5 5 5 5 4 4 3 3 3 1 1 1 2 3 3 4 3 3 4 5 6 6 8 6 6 7 7 7 7 7 8 7 6 6 5 5 5 5 6 6 6 5 7 6 4 4 4 3 4 3 3 3 4 4 4 4 4 4 5 5 7 7 7 6 6 7 7 5
2 2 2 2 3 1 1 4 5 3 5 5 3 2 3 7 6 3 5 8 10 7 7 6 6 6 7 6 5 4 4 4 4 4 4 4 4 3 3 3 2 2 3 3 3 4 5 5 5 5 6 5 5 6 6 7 7 6 6 6 7 7 6 6 5 6 6 6 6 6 6 6 7 8 8 9 9 9 9 8 5 5 4 4 3 3 3 3 3 4 4 5 6 5 7 8 8
1 1 2 0 1 2 3 5 3 3 4 2 6 1 8 5 5 13 13 15 13 10 9 10 8 9 9 7 7 7 7 6 6 5 5 5 4 4 4 4 3 3 3 3 3 4 5 4 4 4 4 5 5 6 5 5 5 5 4 4 3 2 2 2 2 2 3 3 3 3 4 5 4 4 4 5 6 6 7 8 9 9 10 10 9 7 4 4 3 3 3 5 5 3 4 5 7
0 1 1 1 1 2 2 1 4 4 3 5 7 9 4 4 5 9 11 13 15 19 17 11 9 9 8 8 8 8 7 7 7 6 5 5 4 4 3 2 3 2 2 3 3 3 2 3 3 3 3 3 3 2 2 2 2 1 1 1 2 2 3 2 3 1 2 3 2 2 2 2 3 4 2 3 3 4 4 4 5 6 6 7 8 10 9 8 8 9 8 6 5 5 6 6 5
7 8 8 8 5 1 3 10 2 0 3 5 5 13 6 2 2 4 6 9 13 9 9 10 10 10 9 8 6 6 7 7 6 6 6 5 4 3 2 1 1 2 2 3 1 1 1 1 1 1 1 0 0 1 1 1 1 1 1 2 3 3 3 3 4 4 4 4 4 3 3 3 3 5 2 4 4 4 4 4 4 6 5 6 6 6 7 6 8 9 10 8 8 9 9 9 7
Wind_Direction
313 305 296 308 55 110 52 358 165 332 62 1 349 359 261 76 249 23 261 331 359 253 206 135 128 86 178 209 201 209 205 121 212 116 238 235 227 236 219 218 233 142 156 162 174 178 186 189 186 183 186 185 181 180 176 172 168 161 165 166 174 175 173 168 166 166 168 164 156 153 150 150 149 145 140 133 134 129 121 118 122 119 112 105 95 88 76 67 64 62 62 61 60 61 63 64 62
288 302 303 324 195 69 261 115 95 355 37 58 225 93 251 287 62 207 218 197 206 232 335 145 43 64 47 79 158 167 278 221 168 190 269 242 294 253 198 191 171 157 159 161 171 179 181 187 186 185 186 187 179 182 176 174 170 164 167 165 175 176 177 174 171 171 172 167 165 164 162 158 155 153 147 137 135 128 124 124 122 125 116 108 93 85 79 67 58 57 58 58 56 55 56 56 54
310 345 352 28 35 67 89 36 303 50 81 59 277 206 324 321 217 249 222 217 234 272 310 342 174 110 32 17 350 134 274 261 293 276 234 333 72 252 179 179 181 161 159 163 167 177 182 185 185 185 186 189 183 182 176 177 173 169 169 168 177 177 178 179 177 177 177 173 173 170 164 162 159 153 145 141 135 129 131 135 149 136 114 96 80 72 66 52 55 54 53 56 58 55 55 52 47
294 29 316 53 252 33 53 26 85 120 116 202 310 285 192 191 246 215 239 246 266 341 349 298 95 233 131 347 228 71 284 324 194 162 302 230 201 201 160 167 168 154 157 163 170 174 180 187 186 186 186 187 185 183 180 176 175 173 172 175 177 180 180 180 180 180 183 184 179 172 171 172 161 153 146 141 143 136 129 117 106 102 113 115 89 70 60 60 55 56 53 50 53 51 50 50 45
42 329 81 99 104 2 100 95 133 107 105 205 120 276 263 219 237 253 272 280 286 181 341 217 17 303 194 203 174 176 266 249 304 187 247 263 255 185 149 156 147 155 168 171 168 173 179 182 187 186 187 187 185 183 181 180 178 178 180 182 182 181 183 182 181 183 187 188 186 177 178 174 160 158 157 149 138 127 126 122 121 101 85 81 78 63 65 64 56 54 52 49 45 44 42 41 39
61 41 8 82 52 152 50 58 29 288 217 147 161 249 242 234 214 226 271 308 274 170 202 99 200 305 329 237 183 188 207 40 213 258 183 262 198 170 150 147 147 161 169 172 174 173 177 182 185 185 188 188 185 181 183 180 180 181 183 184 186 186 186 185 184 186 189 189 189 185 173 173 166 162 154 141 135 146 144 140 105 92 86 81 50 97 90 68 69 65 54 44 47 44 36 30 31
352 36 358 22 26 51 152 126 222 197 281 162 216 259 249 258 223 349 309 347 258 315 158 303 34 27 37 313 327 241 183 82 113 258 174 329 148 146 146 150 149 164 169 174 177 179 180 182 184 186 187 187 186 182 184 179 181 183 185 187 188 190 189 188 189 189 192 194 187 186 176 173 172 170 151 142 147 152 154 131 116 102 97 73 62 37 68 68 74 67 55 47 44 39 33 34 31
94 105 323 99 287 45 49 158 249 163 351 166 223 256 270 245 202 258 272 89 321 25 312 198 4 120 259 60 326 276 330 196 247 301 279 271 160 146 152 149 155 171 172 173 177 181 184 185 186 186 187 187 187 182 183 182 183 184 183 190 192 193 192 190 194 194 195 199 192 185 180 179 188 178 149 149 155 165 155 143 136 137 132 131 84 60 29 49 58 61 57 48 39 39 41 38 33
359 89 245 68 37 31 51 56 283 245 283 294 287 222 267 237 174 200 324 239 308 235 312 336 285 30 250 348 224 268 292 308 302 304 311 185 157 154 153 162 163 169 176 175 177 178 184 190 190 189 188 189 189 183 185 184 185 184 183 190 195 194 194 194 197 199 201 202 191 191 185 188 198 170 157 156 161 169 157 154 153 154 165 174 133 101 125 27 60 83 63 48 45 38 37 32 32
35 68 332 99 129 9 8 296 58 192 253 235 284 284 264 303 279 187 256 358 225 226 265 275 209 227 324 301 310 334 285 338 309 10 23 34 139 132 155 178 173 163 170 181 179 180 186 192 193 193 192 191 191 187 187 188 187 186 185 188 195 195 196 195 198 204 207 207 199 191 189 194 203 178 163 163 165 169 165 164 164 171 191 176 162 175 208 243 179 117 78 47 43 41 27 23 36
356 10 137 68 28 59 14 270 268 312 285 320 298 242 237 213 199 289 57 269 54 204 318 145 15 255 59 274 227 260 308 338 3 229 225 286 94 144 157 212 181 175 170 180 182 180 186 192 196 196 194 196 194 188 188 189 188 187 186 187 194 195 197 196 196 202 208 210 205 193 192 194 211 188 177 174 167 171 170 167 168 153 171 163 182 195 228 240 227 197 110 61 59 43 43 40 35
356 13 9 99 113 154 245 187 288 282 297 334 277 318 211 162 111 337 314 359 324 317 218 128 273 148 272 338 298 287 310 310 225 234 253 325 145 165 153 160 216 190 191 177 175 184 185 190 198 201 198 198 199 193 191 191 190 187 187 189 193 197 196 196 195 197 204 209 209 193 197 198 205 198 182 183 175 173 174 173 165 151 155 178 189 222 234 221 231 228 149 104 95 65 87 70 55
99 94 72 79 217 163 213 297 254 282 326 316 231 18 2 127 239 229 235 224 342 352 334 215 113 86 284 206 260 319 339 267 218 226 254 226 185 188 64 164 211 200 179 188 177 187 188 192 197 201 202 201 201 198 195 195 192 188 189 191 195 198 197 196 196 196 202 205 206 194 195 202 204 199 181 183 180 175 177 177 169 162 179 194 210 224 219 216 225 225 163 138 164 175 142 99 87
111 178 127 16 64 124 177 258 326 22 316 287 268 273 298 273 251 242 132 317 285 182 248 192 120 140 257 1 313 346 266 284 265 247 267 266 91 66 181 190 194 200 194 183 193 190 190 195 197 201 202 205 203 203 200 198 197 192 192 194 196 199 199 196 196 197 202 204 203 195 195 197 206 203 185 176 181 176 179 164 161 173 185 203 207 203 210 207 218 221 170 174 238 214 182 110 78
104 142 82 120 336 47 248 124 264 141 249 5 289 9 351 254 3 124 189 241 277 213 328 175 181 94 255 164 284 247 271 309 337 18 99 51 44 43 15 117 98 209 195 194 200 191 196 192 198 200 202 204 204 201 200 202 200 198 195 198 198 199 201 197 197 198 200 204 197 187 193 193 200 192 182 170 175 174 163 157 168 173 194 202 201 202 200 201 206 208 198 197 232 235 192 102 70
142 86 70 78 272 78 272 197 65 102 260 223 283 300 335 294 187 354 272 175 259 322 100 231 57 232 250 168 246 252 263 322 348 63 79 55 4 5 18 350 61 250 213 198 204 206 194 191 196 201 203 204 203 203 203 198 204 202 200 201 202 202 202 200 199 200 199 199 192 184 186 192 194 188 180 172 167 168 163 162 175 175 196 201 194 195 197 200 203 203 207 206 227 232 195 98 52
60 81 31 28 290 158 259 171 158 255 257 285 300 16 358 294 289 235 144 138 291 274 1 253 222 13 211 220 247 302 336 26 48 70 83 35 9 324 338 316 309 306 235 220 205 205 200 196 196 199 204 204 203 203 202 200 200 201 204 203 204 205 204 204 202 202 198 198 190 187 185 185 181 180 180 171 167 170 170 167 172 182 189 182 184 195 199 201 204 200 210 226 224 232 82 62 18
53 73 111 267 201 144 206 187 188 190 265 282 327 349 291 306 327 288 347 335 323 297 295 280 289 257 226 246 98 329 303 110 93 123 142 202 32 260 276 266 257 233 225 223 224 205 201 203 199 199 200 206 204 204 201 199 196 198 203 201 204 206 208 206 205 202 197 195 194 183 183 182 176 174 177 170 171 168 171 171 173 179 182 171 175 192 202 199 205 207 206 230 232 120 85 56 20
96 122 96 228 186 241 158 202 212 186 266 239 284 320 222 257 158 305 346 291 334 324 297 175 276 284 305 304 318 20 71 94 150 165 178 203 209 219 226 232 243 256 252 230 221 202 204 204 199 198 200 200 203 204 203 196 193 187 204 200 195 199 201 202 199 199 189 189 184 180 177 182 181 167 170 171 169 167 171 175 173 182 185 174 175 189 203 200 204 206 213 224 219 97 70 60 31
214 118 222 252 209 243 220 201 240 194 246 286 304 307 146 262 215 299 277 294 312 288 292 327 276 291 303 281 323 342 34 258 238 196 210 219 220 217 226 229 235 232 228 215 210 197 204 205 202 201 198 196 198 201 199 191 190 180 194 200 191 189 194 193 193 187 185 182 179 173 170 171 185 170 165 171 163 166 182 183 177 188 182 169 178 184 214 201 198 205 208 208 88 70 81 44 16
271 90 190 230 210 147 270 194 240 246 196 245 254 300 321 303 230 47 269 345 301 281 235 216 265 286 298 309 307 291 281 254 253 246 244 248 246 245 231 224 218 229 240 241 218 214 203 202 198 204 198 198 199 200 198 196 183 177 185 193 190 187 187 185 189 186 184 177 174 170 165 162 166 158 153 152 170 153 152 171 148 164 152 156 165 175 219 252 181 167 123 71 114 113 124 276 7
114 210 211 182 129 264 255 253 243 223 189 208 276 335 278 310 322 130 150 254 272 277 285 201 228 267 291 307 311 329 300 286 267 265 250 249 251 252 260 267 284 296 320 215 225 221 209 201 198 196 194 197 199 201 201 193 181 188 185 187 184 191 181 184 186 188 181 176 169 169 154 158 155 150 150 158 153 149 158 159 160 143 137 167 112 177 207 159 116 131 115 124 115 103 145 289 321
231 311 268 214 211 249 275 312 231 94 323 301 308 270 351 33 287 244 231 228 251 261 265 285 287 269 280 287 310 317 310 287 273 256 258 271 274 272 273 277 282 284 277 257 268 239 229 206 201 189 199 196 199 198 197 195 199 191 187 186 195 203 201 176 189 191 179 173 170 165 163 163 163 163 166 157 158 157 177 168 171 175 171 163 152 163 205 139 139 136 131 150 142 142 164 318 328
155 251 347 301 168 226 267 279 289 289 242 261 206 358 304 308 298 194 250 247 236 265 277 298 344 18 346 333 325 313 315 316 314 311 298 285 290 295 298 289 267 244 240 249 241 274 266 258 204 195 199 196 198 192 193 196 196 190 188 174 183 187 188 212 180 178 177 173 172 169 172 169 169 172 179 175 169 164 180 179 173 173 167 173 144 157 183 165 146 132 139 134 157 183 226 294 314
186 274 259 268 284 244 273 272 288 276 269 265 296 285 265 188 242 350 274 275 259 253 291 305 7 51 25 17 3 352 19 20 14 358 11 9 347 329 343 330 307 271 253 253 237 229 209 208 220 218 205 200 194 185 195 195 192 193 179 186 189 172 185 202 185 143 163 178 172 167 170 172 175 182 182 186 161 180 171 170 172 193 192 184 160 175 175 187 187 177 178 180 178 205 248 286 317
204 226 315 309 298 301 294 307 280 270 276 199 315 270 268 249 228 246 254 267 294 340 339 10 8 24 34 37 29 26 26 18 9 16 5 344 355 5 2 351 336 327 281 269 250 235 193 180 200 212 210 199 184 179 194 189 193 196 191 183 181 176 194 196 245 191 166 158 192 176 171 173 182 182 185 176 173 183 178 173 177 188 203 207 177 176 191 180 191 185 183 186 187 207 235 266 324
167 228 228 275 275 320 288 222 280 257 252 225 248 280 288 348 62 285 274 256 10 17 347 32 23 32 42 45 39 32 34 22 13 345 15 10 7 6 348 348 353 331 321 299 277 243 201 179 199 200 204 191 174 192 189 195 183 198 198 185 172 168 150 162 175 187 180 164 170 182 177 176 180 185 180 178 191 182 182 180 188 182 199 212 214 202 172 187 178 189 193 194 195 197 220 230 304
73 239 298 275 298 265 255 268 273 306 301 190 190 251 289 284 103 233 260 74 42 23 355 20 28 42 54 44 44 25 37 19 9 26 23 10 1 350 348 356 342 338 350 336 318 301 292 229 194 182 178 177 178 195 186 189 190 191 181 170 184 188 176 177 161 166 162 160 151 164 171 190 179 182 179 177 182 176 181 195 187 181 208 201 211 192 174 174 174 163 155 173 174 174 235 306 346
229 30 321 297 342 333 288 269 305 120 270 158 165 322 317 21 211 242 255 358 2 352 42 40 35 44 54 49 45 37 26 14 21 30 16 0 344 349 352 352 347 342 341 337 336 7 1 0 91 127 151 159 184 192 192 188 173 170 172 176 166 160 180 185 188 177 178 172 163 171 182 183 182 174 185 180 185 187 180 176 181 205 215 199 193 189 155 142 129 139 152 129 127 124 247 283 317
356 34 138 325 355 321 288 27 41 83 253 152 176 305 278 263 241 265 303 353 353 1 24 23 32 51 51 48 46 41 26 23 26 20 5 360 355 354 360 353 357 357 345 354 18 25 6 15 52 86 111 126 136 88 107 133 165 153 166 167 159 162 168 176 189 191 189 179 174 182 191 189 182 182 173 185 183 193 194 186 188 204 209 193 174 163 172 163 164 168 185 153 193 197 223 239 249
255 254 66 248 357 275 282 60 285 332 267 165 74 209 282 280 283 280 304 243 45 357 15 13 50 67 55 44 43 40 31 27 22 13 7 3 359 360 2 1 6 6 7 17 26 21 35 31 27 41 29 80 94 81 82 83 80 95 120 142 154 173 179 187 199 201 190 200 210 220 187 183 194 193 189 187 186 172 173 197 204 213 188 171 176 187 171 171 173 189 163 189 190 216 229 242 224
7 14 292 331 177 277 304 295 198 197 338 94 116 301 238 271 286 283 319 59 42 3 16 39 76 65 48 37 35 29 25 16 18 17 10 3 5 2 7 7 6 15 20 13 21 25 38 33 35 46 34 35 49 74 90 99 104 107 110 128 150 166 152 171 177 201 221 176 190 190 203 203 203 197 187 164 165 182 187 197 214 194 178 171 183 167 165 184 188 178 190 176 188 235 221 250 216
350 187 273 281 205 264 335 316 34 255 59 8 154 247 330 304 269 294 329 40 49 19 10 77 68 58 48 40 34 27 19 16 17 12 6 4 3 4 6 8 14 17 21 24 23 29 35 29 34 42 40 40 38 38 50 58 63 61 53 46 47 45 34 19 9 3 55 138 250 219 239 226 194 184 183 184 188 192 199 206 207 181 165 181 177 177 192 186 173 184 194 205 198 215 210 242 242
288 19 222 211 220 264 256 302 358 46 121 280 313 200 241 262 289 288 325 29 8 9 74 76 73 64 55 49 43 35 30 24 19 3 357 0 357 3 4 9 13 20 29 31 30 36 36 30 34 35 34 40 50 55 57 62 63 64 60 59 55 50 40 31 25 36 29 22 21 0 1 331 310 285 242 175 207 200 200 211 167 175 172 176 183 179 196 153 180 181 206 207 204 200 212 222 237
218 198 249 289 264 224 248 281 262 13 40 315 283 248 270 275 280 287 333 352 24 31 82 86 70 60 50 46 43 36 35 31 14 358 355 357 4 2 4 5 14 23 30 32 37 35 37 32 33 31 27 21 31 47 63 73 73 74 71 64 58 52 50 45 42 49 34 39 34 25 28 32 18 31 98 128 176 160 185 137 139 122 131 159 157 160 156 171 188 201 211 213 210 224 227 224 236
221 223 231 193 240 258 228 241 281 28 303 313 279 259 271 277 284 292 351 11 51 55 80 72 65 57 54 50 44 38 33 33 5 359 0 8 10 7 5 1 14 23 28 30 38 37 35 34 34 36 26 14 26 37 36 47 59 55 57 47 44 30 35 42 39 38 22 26 16 28 40 45 50 50 43 42 45 47 41 41 65 84 111 133 156 176 203 203 216 206 244 235 234 268 289 223 189
216 143 172 239 235 276 274 280 260 223 318 248 260 283 270 273 271 339 345 6 36 53 71 69 58 56 50 49 44 37 40 26 346 0 13 16 16 13 11 13 10 28 28 25 35 34 34 32 39 34 16 23 33 32 35 37 39 42 50 53 60 35 37 39 39 24 32 28 23 19 18 23 35 45 44 51 55 58 54 57 59 50 53 60 26 352 9 345 7 358 161 168 211 240 265 197 104
224 246 240 271 207 258 266 283 301 303 162 295 6 329 280 261 308 1 1 44 29 31 72 66 70 60 55 49 43 35 24 23 15 23 17 21 19 17 19 23 19 29 16 23 29 28 31 32 38 30 21 28 30 27 41 57 43 77 93 86 85 53 42 41 32 24 21 27 28 26 20 11 20 34 31 46 54 65 66 65 67 88 90 82 84 62 51 55 83 82 79 327 174 237 270 150 198
221 222 242 292 263 259 275 266 330 275 140 258 338 280 276 287 49 39 48 60 54 36 49 51 58 57 48 42 40 31 36 28 21 21 21 22 20 21 26 26 30 30 27 28 23 30 29 31 29 29 26 25 22 19 34 51 56 53 70 61 75 93 69 76 72 49 37 38 34 26 21 21 19 19 16 25 41 33 50 62 63 84 90 107 37 3 83 6 145 187 175 218 274 18 287 152 190
193 165 165 233 229 11 302 287 355 10 173 276 189 244 274 311 81 71 36 63 73 58 62 58 45 56 50 40 28 33 32 22 21 13 15 17 24 25 29 30 26 32 31 28 24 28 31 31 28 29 27 25 23 17 24 26 71 87 78 84 68 76 73 36 49 40 30 31 29 25 28 17 20 28 22 21 22 23 28 42 40 51 68 88 138 263 230 262 148 127 200 249 283 289 250 260 196
260 195 216 240 247 232 188 252 328 314 316 64 318 298 306 264 188 87 82 68 69 48 56 53 43 50 60 59 49 38 38 18 18 15 15 19 25 25 26 27 27 37 34 30 22 25 34 34 31 32 31 28 28 24 26 25 35 37 45 60 59 53 35 32 32 24 22 24 27 24 13 21 26 31 25 25 26 24 22 19 22 23 34 21 67 53 284 252 222 203 198 208 202 231 271 266 208
284 228 207 219 221 238 250 310 352 7 339 335 52 337 306 306 294 158 148 40 47 20 60 49 44 40 36 49 42 29 35 34 36 24 18 18 27 26 29 31 34 35 35 25 22 26 30 35 37 36 35 31 26 26 30 47 51 51 44 41 38 38 41 27 26 11 6 17 9 342 24 25 27 30 27 25 25 22 22 18 17 20 17 4 8 311 290 335 299 253 220 203 232 226 246 287 294
282 272 197 217 223 212 205 221 85 279 221 307 39 232 267 322 335 179 132 98 74 37 54 52 37 40 40 42 36 30 27 25 27 31 24 32 23 35 33 33 28 37 29 21 30 32 35 39 39 42 41 34 26 29 33 49 59 57 62 66 63 57 59 35 22 20 23 7 18 28 20 23 26 26 22 24 20 20 20 18 15 16 17 11 0 7 344 315 294 261 269 190 228 250 201 257 263
237 255 141 149 165 181 202 166 183 231 255 299 18 149 254 302 281 177 138 106 87 62 51 38 41 37 37 45 36 25 21 27 39 36 31 29 33 36 37 26 28 30 20 33 38 34 37 38 43 44 43 40 31 26 43 45 61 58 62 62 58 56 57 47 24 21 25 23 35 25 23 22 21 25 21 19 18 16 15 15 13 15 20 9 2 358 336 325 328 328 335 244 241 222 214 225 262
218 230 118 140 164 171 131 126 151 203 39 285 319 318 319 258 260 29 136 108 59 96 112 78 56 38 49 46 41 45 36 20 26 38 36 33 29 28 28 32 18 26 26 35 37 37 41 44 48 49 46 41 32 33 46 50 60 62 64 61 63 49 53 47 41 40 37 26 42 26 28 21 22 23 24 21 18 16 15 11 11 14 15 8 2 1 354 349 343 332 334 341 313 296 232 243 266
267 141 90 79 73 65 100 102 100 341 56 262 233 182 232 278 267 332 256 190 206 196 172 172 154 137 92 39 24 34 30 50 45 37 28 28 23 30 23 26 32 25 20 30 38 42 43 46 49 52 45 42 34 37 47 54 56 59 59 54 61 52 43 43 47 40 34 27 39 30 26 27 20 22 19 21 18 13 11 9 11 13 9 6 9 7 3 4 358 349 336 328 331 321 308 292 249
121 89 70 14 36 23 26 58 81 42 266 241 209 199 183 289 272 199 153 210 185 138 159 170 181 305 158 161 208 358 37 25 26 32 31 27 11 28 28 40 23 24 22 32 37 39 42 49 50 56 45 44 38 41 50 56 59 59 62 60 58 54 45 48 46 38 32 35 37 28 27 22 25 27 19 23 26 16 12 13 10 5 5 7 9 9 6 358 355 351 346 348 343 331 315 328 319
130 114 128 36 334 11 37 345 38 177 264 261 281 215 173 191 288 292 248 315 212 166 172 177 175 184 202 177 179 300 16 23 26 37 30 22 27 25 32 40 30 22 32 34 34 36 44 49 56 64 47 38 35 35 49 51 56 58 61 60 59 53 51 51 52 46 33 38 31 29 18 25 22 23 25 22 20 14 14 13 12 12 12 6 6 354 1 2 357 1 5 4 344 328 325 326 315
95 86 55 117 262 30 307 21 270 214 229 275 5 130 4 245 222 224 301 290 300 222 173 170 168 173 185 199 199 197 25 32 39 40 34 29 39 33 37 31 36 36 38 34 37 42 49 55 56 66 50 35 36 36 53 53 55 51 50 53 54 50 49 50 48 49 34 39 30 28 25 24 14 19 13 13 7 8 10 13 13 12 9 7 359 3 0 3 5 6 5 357 353 351 340 330 316
126 159 147 104 247 227 259 269 236 309 287 281 212 5 280 250 293 112 264 294 285 234 151 150 159 164 174 179 185 138 64 35 17 22 33 39 32 30 31 43 45 41 42 49 51 59 58 63 61 69 58 37 30 45 55 65 62 61 58 63 63 62 63 61 58 62 53 59 52 54 45 37 31 28 11 12 349 353 7 5 3 6 6 4 8 7 7 4 4 4 2 2 350 341 342 339 314
209 102 152 185 145 153 235 190 230 241 233 273 276 71 230 131 206 328 266 301 359 75 114 129 136 151 154 146 124 103 84 91 18 45 40 28 17 15 24 29 43 46 53 53 56 65 71 68 67 72 69 47 55 55 56 64 66 65 66 70 71 69 75 72 74 77 81 82 83 87 82 77 65 30 21 346 356 5 6 7 8 10 4 2 3 5 5 5 6 0 5 354 349 351 342 336 330
169 161 77 93 229 139 235 197 170 252 318 321 172 201 201 155 286 301 2 47 48 70 111 128 142 147 129 134 163 178 188 184 101 121 108 274 256 292 354 15 30 46 50 53 58 67 74 78 85 86 87 82 71 66 63 68 69 73 68 67 66 68 71 81 73 68 64 71 60 58 45 43 30 13 359 2 1 8 5 2 2 3 360 1 0 358 357 358 355 359 355 360 351 349 346 340 332
225 106 203 209 156 120 18 359 81 86 48 255 148 306 291 295 348 16 348 81 71 102 136 155 165 161 151 181 194 197 194 194 202 201 202 200 208 222 218 178 82 68 69 68 65 62 77 77 77 78 83 74 62 63 69 70 70 63 57 63 58 54 52 50 47 39 34 36 49 38 33 16 17 15 1 1 356 356 358 360 357 351 352 352 352 352 349 349 348 351 351 346 348 344 340 331 325
95 160 238 172 144 115 130 224 327 79 211 266 88 206 268 125 282 44 72 127 184 198 187 184 187 173 186 206 200 195 194 197 197 197 199 190 181 176 178 184 149 118 98 80 71 68 69 71 65 64 50 48 39 46 48 48 49 49 41 37 39 43 39 34 33 28 20 26 21 22 16 17 12 4 10 360 355 347 339 336 334 328 322 329 330 328 331 332 341 343 338 334 331 338 336 328 324
147 190 220 123 241 221 309 88 251 260 255 267 282 214 243 186 230 119 231 188 198 204 205 192 202 204 211 215 213 211 210 196 193 200 195 193 182 173 168 157 151 104 81 81 66 57 53 49 51 59 56 47 40 37 35 36 39 40 37 30 28 20 15 16 11 15 17 22 11 7 9 357 359 3 1 359 358 356 355 352 352 342 330 321 295 301 294 301 297 307 309 307 318 335 334 327 321
47 73 66 287 110 189 125 204 191 139 267 287 279 297 257 193 213 183 196 196 185 181 196 203 199 202 205 203 200 196 195 196 195 191 191 185 187 184 168 164 132 105 95 78 74 58 52 42 53 50 49 39 37 35 32 38 19 28 15 8 359 357 351 11 4 21 5 2 348 358 356 353 340 340 345 348 352 345 343 343 340 341 338 337 337 331 326 318 305 295 294 303 298 306 308 306 309
76 170 283 337 358 221 95 349 146 195 196 210 273 276 270 258 193 180 202 181 184 182 187 187 199 206 208 203 193 195 196 196 194 188 184 178 181 196 169 151 124 105 89 83 74 75 43 42 58 42 53 28 31 7 33 49 42 28 27 317 287 311 313 337 326 2 358 321 319 315 294 280 316 309 303 313 311 305 300 305 310 313 316 317 323 324 328 333 333 329 328 323 316 320 316 308 307
171 175 208 183 131 189 242 256 70 205 201 238 244 262 275 256 144 200 184 187 180 192 165 176 199 207 207 208 206 195 199 202 192 189 176 170 177 184 159 117 89 89 94 102 31 58 61 64 18 3 20 347 354 310 341 338 56 70 317 307 315 314 318 328 337 324 334 319 318 309 291 322 304 295 292 296 297 299 294 293 299 297 298 302 301 303 308 317 318 321 320 324 326 326 322 315 314